www.pogodaiklimat.ru

Погода и климат >> Архив погоды >> Россия >> Саратовская область >> Сплавнуха


ПОГОДА в Сплавнухе

  • Прогноз погоды в Сплавнухе
  • Монитор погоды в Сплавнухе

АРХИВ ПОГОДЫ в Сплавнухе

Время (UTC), дата Ветер
(напр.,м/с)
 
Видим.   Явления Облачность Т
(С)
Тd
(С)
f
(%)
Тe
(С)
Тes
(С)
Комфортность P
(гПа)
Po
(гПа)
Тmin
(С)
Tmax
(С)
R
(мм)
R24
(мм)
S
(см)
21 19.05 СВ 2 50 км 4/0
[Ci fib]
+7.4 +0.5 62 +6 +6 1017.6 993.3
00 20.05 ЮЗ 1 50 км ясно +1.7 -0.6 85 0 0 1018.9 994.1
03 20.05 СВ 1 50 км ясно +7.0 +0.9 65 +6 +8 1020.3 995.9 +1.0
06 20.05 В 1 50 км ясно +12.4 +0.8 45 +13 +25 опасность
простуды
1020.8 996.8
09 20.05 СЗ 2 50 км 6/6 600 м
[Cu hum]
+14.8 +0.2 37 +15 +21 1020.3 996.6
12 20.05 СЗ 4 50 км 4/4 600 м
[Cu hum]
+16.4 -0.3 32 +16 +20 1019.3 995.7
15 20.05 С 3 50 км 4/3 600 м
[Cu hum Ci fib]
+16.0 -0.7 32 +16 +17 1019.1 995.5 +16.8
18 20.05 С 1 50 км 3/0
[Ci fib]
+8.2 +0.5 58 +8 +8 1021.0 996.7
21 20.05 Ю 1 50 км ясно +4.5 +1.0 78 +3 +3 1022.4 997.7
00 21.05 З 1 50 км ясно +3.7 -1.3 70 +3 +3 1022.8 998.1
03 21.05 ЮЗ 1 50 км ясно +7.6 +1.1 63 +7 +9 1023.2 998.8 +2.3
06 21.05 штиль 0 50 км ясно -17.0 -6.0 100 -17 -2 1002.2 999.2
09 21.05 З 2 50 км 8/8 600 м
[Cu hum]
+19.3 +0.5 28 +20 +23 1022.1 998.7
12 21.05 З 3 50 км 8/8 600 м
[Cu hum]
+20.9 +1.0 27 +21 +23 комфорт 1020.9 997.6
15 21.05 З 3 50 км 8/0
[Ci]
+19.9 +1.0 28 +20 +22 1019.7 996.4 +21.3
18 21.05 ЮЗ 2 50 км 4/0
[Ci fib]
+14.5 +1.2 40 +14 +14 1020.1 996.3
21 21.05 З 2 50 км 3/0
[Ci fib]
+12.6 +1.7 47 +12 +12 1020.4 996.5
00 22.05 СЗ 2 50 км 3/0
[Ci fib]
+10.5 +1.6 54 +9 +9 1020.2 996.1
03 22.05 ЮЗ 3 50 км 8/0
[Ci fib]
+14.9 +2.2 42 +14 +16 1019.4 995.7 +10.0
06 22.05 ЮЗ 4 50 км 8/0
[Ci fib]
+20.6 +4.4 34 +21 +28 комфорт 1018.1 994.9
09 22.05 ЮЗ 3 50 км 6/0
[Ci fib]
+23.4 +4.1 28 +23 +35 комфорт 1016.6 993.6
12 22.05 ЮЗ 4 50 км 6/4 600 м
[Cu hum Ci fib]
+24.4 +4.9 28 +24 +28 комфорт 1014.8 991.9
15 22.05 ЮЗ 5
{10}
50 км 9/0
[Ac trans]
+20.9 +5.4 36 +22 +22 комфорт 1014.3 991.2 +24.6
18 22.05 ЮЗ 3 50 км 8/0
[Ci]
+16.9 +6.2 49 +17 +17 1014.7 991.3
21 22.05 ЮЗ 1 50 км 8/0
[Ci fib]
+13.2 +4.5 56 +14 +14 1014.0 990.3
00 23.05 Ю 3 50 км 3/0
[Ci fib]
+12.9 +3.5 53 +12 +12 1012.6 988.9
03 23.05 Ю 4 50 км 8/0
[Ci]
+13.3 +5.6 60 +12 +13 1011.0 987.4 +12.2
06 23.05 Ю 4 50 км 8/8 600 м
[Cu hum]
+17.5 +10.4 63 +17 +19 1009.5 986.3
09 23.05 Ю 2 50 км 8/8 600 м
[Cu hum]
+20.1 +11.6 58 +22 +26 комфорт 1007.3 984.6
12 23.05 Ю 2 50 км {гроза, ливн. осадки} 9/6 300 м
[Cb cap Ac trans]
+17.0 +12.5 75 +17 +20 1006.9 984.0
15 23.05 Ю 4
{11}
50 км 6/4 600 м
[Cu hum Ci]
+18.7 +13.0 69 +19 +20 1005.6 982.6 +22.7 2
18 23.05 ЮЗ 2 50 км 3/0
[Ac trans]
+15.1 +12.5 84 +15 +15 1006.2 982.9
21 23.05 З 1 50 км ясно +11.9 +10.5 91 +12 +12 1006.0 982.4
00 24.05 З 2 50 км ясно +10.3 +9.0 92 +9 +9 1005.2 981.5
03 24.05 З 2 50 км 3/0
[Ac trans]
+12.6 +11.0 90 +12 +13 1005.3 981.8 +9.6
06 24.05 З 2 50 км 8/3 600 м
[Cu hum Ci fib]
+20.5 +13.0 62 +23 +30 комфорт 1005.3 982.4
09 24.05 С 3 50 км 8/4 600 м
[Cu hum Ci fib]
+23.1 +13.2 54 +26 +34 жарко 1006.0 983.3
12 24.05 СВ 5-11
{11}
50 км 9/4 600 м
[Cu med, cong Ac trans]
+20.9 +13.0 61 +23 +25 комфорт 1007.6 984.7
15 24.05 В 3
{12}
50 км 1/1 600 м
[Cu hum]
+19.0 +11.8 63 +20 +21 1010.4 987.3 +24.2
18 24.05 В 1 50 км ясно +13.4 +9.7 78 +14 +14 1013.2 989.5
21 24.05 В 2 50 км ясно +9.8 +1.7 57 +9 +9 1016.0 991.9
00 25.05 В 2 50 км ясно +7.1 +1.5 68 +5 +5 1017.7 993.4
03 25.05 ЮВ 3 50 км 3/0
[Ac trans]
+8.8 +3.1 67 +7 +8 1018.4 994.2 +5.4
06 25.05 ЮВ 4-11
{11}
50 км 3/0
[Ac trans]
+12.5 +2.0 49 +11 +17 1018.1 994.2
09 25.05 ЮВ 4-10
{11}
50 км 3/0
[Ci fib]
+16.6 -0.5 31 +16 +27 1017.0 993.4
12 25.05 ЮВ 4-10
{11}
50 км 4/0
[Ci]
+18.9 -1.9 24 +19 +26 1015.1 991.8
15 25.05 ЮВ 4
{10}
50 км 8/0
[Ci]
+18.4 -1.6 26 +18 +19 1014.1 990.8 +19.4
18 25.05 В 2 50 км 9/5 600 м
[Cu hum Ac trans Ci]
+15.2 -0.1 35 +15 +15 1014.2 990.6
21 25.05 В 3 50 км 5/0
[Ac trans]
+13.1 -1.0 38 +12 +12 1013.0 989.3
00 26.05 ЮВ 4 50 км 8/0
[Ac trans]
+11.6 +2.8 55 +10 +10 1011.6 987.8
03 26.05 В 2 50 км слаб. дождь 10/0
[Ac und]
+9.6 +7.0 84 +8 +9 1010.9 987.0 +9.6 0.5
06 26.05 В 3 50 км в посл. час дождь 5/5 600 м
[Cu med, cong]
+16.1 +10.5 69 +16 +20 1009.4 986.0
09 26.05 Ю 6-10
{12}
50 км 8/8 600 м
[Cu med, cong]
+22.2 +13.8 59 +25 +27 комфорт 1007.4 984.6
12 26.05 ЮЗ 8-11
{14}
50 км 9/0
[Ac trans]
+19.6 +13.7 69 +21 +22 комфорт 1007.2 984.2
15 26.05 Ю 4
{13}
20 км слаб. ливневой дождь 10/10 300 м
[Cb cap]
+16.8 +14.4 86 +16 +16 1006.7 983.5 +23.5 0.8

 

Местоположение метеостанции Сплавнуха (Саратовская область, Россия): широта 51.07 долгота 45.38 высота над уровнем моря 197 м.

В архиве по умолчанию представлена погода в Сплавнухе за последнюю неделю. Архивные данные за месяц целиком и за предыдущие месяцы, начиная с января 2011 года, Вы можете получить, выбрав интересующий диапазон дат из раскрывающегося списка и нажав кнопку "Ввод!".


*Определитесь, кто Вы:
робот инопланетянин человек

Внимание! Время в таблицах - всемирное. Для получения местного времени необходимо прибавить поправку, которая равна 4 ч.

Смотрите также архив погоды в соседних городах и на ближайших метеорологических станциях:

Погода в Октябрьском Городке (Саратовская область, Россия) (62 км)
Погода в Рудне (Волгоградская область, Россия) (63 км)
Погода в Саратове ЮВ (Саратовская область, Россия) (70 км)
Погода в Саратове (Саратовская область, Россия) (72 км)
Погода в Калининске (Саратовская область, Россия) (76 км)
Погода в Аткарске (Саратовская область, Россия) (92 км)
Погода в Камышине (Волгоградская область, Россия) (111 км)
Погода в Красном Куте (Саратовская область, Россия) (112 км)
Погода в Елани (Волгоградская область, Россия) (116 км)
Погода в Маркс (Саратовская область, Россия) (117 км)

Пояснения к столбцам:

Ветер - указаны скорость ветра в м/с - средняя за 10 мин, порывы в срок и между сроками (в фигурных скобках) и направление, откуда дует ветер: С - северный, СВ - северо-восточный, В - восточный, ЮВ - юго-восточный, Ю - южный, ЮЗ - юго-западный, З - западный, СЗ - северо-западный.
Видимость - горизонтальная дальность видимости в метрах или километрах. При видимости от 1 до 10 км при отсутствии осадков обычно наблюдается дымка, при ухудшении видимости до 1 км и менее - туман. В сухую погоду видимость может ухудшаться дымом, пылью или мглою.
Явления - указаны атмосферные явления, наблюдавшиеся в срок или в последний час перед сроком; фигурными скобками обозначены явления, наблюдавшиеся между сроками (за 1-3 часа до срока); квадратными скобками обозначены град или гололедные отложения с указанием их диаметра в мм.
Облачность - указаны через наклонную черту общая и нижняя облачность в баллах и высота нижней границы облаков в метрах; квадратными скобками обозначены формы облаков: Ci - перистые, Cs - перисто-слоистые, Cc - перисто-кучевые, Ac - высококучевые, As - высокослоистые, Sc - слоисто-кучевые, Ns - слоисто-дождевые, Cu - кучевые, Cb - кучево-дождевые. Подробнее классификацию облаков см. в Атласе облаков (PDF).
T - Температура воздуха - температура, измеренная на высоте 2 м над землей.
Td - Температура точки росы - температура, при понижении до которой содержащийся в воздухе водяной пар достигнет насыщения.
f - Относительная влажность воздуха - влажноcть воздуха, измеренная на высоте 2 м над землей.
Te - Эффективная температура - температура, которую ощущает одетый по сезону человек в тени. Характеристика душности погоды. При расчете учитывается влияние влажности воздуха и скорости ветра на теплоощущения человека.
Tes - Эффективная температура на солнце - температура, которую ощущает человек, с поправкой на солнечный нагрев. Характеристика знойности погоды. Зависит от высоты солнца над горизонтом, облачности и скорости ветра. Ночью, в пасмурную погоду, а также при ветре 12 м/с и более поправка равна нулю.
P - Атмосферное давление - приведенное к уровню моря атмосферное давление.
Po - Атмосферное давление - измеренное на уровне метеостанции атмосферное давление.
Tmin - Минимальная температура - минимум температуры воздуха на высоте 2 м над землей.
Tmax - Максимальная температура - максимум температуры воздуха на высоте 2 м над землей.
R - Количество осадков - Количество выпавших осадков за период времени, мм. При наведении курсора мыши на число - период времени, за который выпало указанное количество осадков.
R24 - Количество осадков - Количество выпавших осадков за 24 часа, мм.
S - Снежный покров - Высота снежного покрова, см. При наведении курсора мыши на число - состояние снежного покрова и степень покрытия местности в баллах.